Regional Weather Roundup
Issued by NWS

Home | Current Version | Previous Version | Text Only | Print | Product List | Glossary On
Versions: 1 2 3 4 5 6 7 8 9 10 11 12 13 14 15 16 17 18 19 20 21 22 23 24 25 26 27 28 29 30 31 32 33 34 35 36 37 38 39 40 41 42 43 44 45 46 47 48 49 50
000
ASUS45 KPSR 231310
RWRAZ

ARIZONA REGIONAL HOURLY WEATHER ROUNDUP
NATIONAL WEATHER SERVICE PHOENIX AZ
600 AM MST SAT AUG 23 2014

NOTE: FAIR INDICATES FEW OR NO CLOUDS BELOW 12,000 FEET WITH NO
SIGNIFICANT WEATHER AND/OR OBSTRUCTIONS TO VISIBILITY.

AZZ001>003-036-231400-
NORTHWEST ARIZONA

CITY           SKY/WX    TMP DP  RH WIND       PRES   REMARKS
BULLHEAD CITY  CLEAR     79  55  44 SE7       29.86R
KINGMAN        CLEAR     63  53  70 SE12      30.01R
$$

AZZ004>008-015-016-018-231400-
NORTH CENTRAL ARIZONA

CITY           SKY/WX    TMP DP  RH WIND       PRES   REMARKS
GRAND CANYON   CLEAR     46  45  96 CALM      30.21
WILLIAMS       CLEAR     52  46  82 SE7       30.27R
PRESCOTT       CLEAR     56  50  80 S6        30.14R
FLAGSTAFF      CLEAR     47  44  90 CALM      30.25R
PAYSON         CLEAR     57  52  82 CALM      30.17S
PAGE           CLEAR     67  50  54 CALM      30.03R
$$

AZZ009>014-017-231400-
NORTHEAST ARIZONA

CITY           SKY/WX    TMP DP  RH WIND       PRES   REMARKS
WINSLOW        CLEAR     57  52  83 S6        30.13R
SAINT JOHNS    CLEAR     53  48  83 SE5       30.18R
WINDOW ROCK    CLEAR     50  44  80 CALM      30.23
SHOW LOW       CLEAR     54  48  82 S8        30.24R
$$

AZZ023-231400-
GREATER PHOENIX AREA

CITY           SKY/WX    TMP DP  RH WIND       PRES   REMARKS
PHOENIX        PTCLDY    77  62  59 E7        29.91R
BUCKEYE          N/A     72  64  78 CALM      29.91S
LUKE AFB       NOT AVBL
DEER VALLEY    CLEAR     72  64  76 E3        29.93R
SCOTTSDALE     CLEAR     74  65  73 CALM      29.95R
MESA-FALCON    CLEAR     73  57  56 N7        29.93
MESA-GATEWAY   PTCLDY    73  61  64 E6        29.95R
CHANDLER       PTCLDY    72  61  68 NE6       29.93
$$

AZZ027-028-231400-
SOUTHWEST MARICOPA COUNTY AND PINAL COUNTY

CITY           SKY/WX    TMP DP  RH WIND       PRES   REMARKS
CASA GRANDE    CLEAR     70  54  56 CALM      29.94R
$$

AZZ503-504-507>509-231400-
SOUTHEAST ARIZONA

CITY           SKY/WX    TMP DP  RH WIND       PRES   REMARKS
TUCSON         CLEAR     73  63  70 SE10      30.03R
DAVIS-MONTHAN  CLEAR     70  63  76 S7        30.02R
RYAN FIELD       N/A     70  66  88 NE5       30.02
NOGALES        CLEAR     61  59  93 E3        30.10R
SIERRA VISTA   CLEAR     61  58  90 SW7       30.15R
DOUGLAS        CLEAR     60  58  92 CALM      30.12R
SAFFORD        CLEAR     67  60  78 CALM      30.04R
$$

AZZ020-021-025-026-031-231400-
SOUTHWEST ARIZONA

CITY           SKY/WX    TMP DP  RH WIND       PRES   REMARKS
YUMA           CLEAR     79  67  66 CALM      29.85R
$$

CAZ031-033-041-043-047-048-061-231400-
SOUTHERN CALIFORNIA

CITY           SKY/WX    TMP DP  RH WIND       PRES   REMARKS
DOWNTOWN L.A.  MOCLDY    66  60  81 CALM      29.95R
L.A. AIRPORT   MOCLDY    67  60  78 CALM      29.95S
SAN DIEGO      CLEAR     67  62  84 CALM      29.97R
BURBANK        MOCLDY    65  58  78 CALM      29.95S
ONTARIO        CLEAR     64  61  90 CALM      29.97R
RIVERSIDE      CLEAR     63  60  90 CALM      29.97R
PALM SPRINGS   CLEAR     77  47  34 CALM      29.86R
EL CENTRO NAS  PTCLDY    76  58  53 SW12      29.83R
IMPERIAL       CLEAR     74  58  57 SW6       29.83R
BLYTHE         CLEAR     76  48  37 S7        29.84R
NEEDLES        CLEAR     81  53  37 W7        29.86R
$$

NVZ020-UTZ003-231400-
SOUTHERN NEVADA-UTAH

CITY           SKY/WX    TMP DP  RH WIND       PRES   REMARKS
LAS VEGAS      CLEAR     78  46  32 S13       29.84R
SALT LAKE CITY CLOUDY    55  48  77 S7        30.02R
$$

NMZ009-TXZ055-231400-
NEW MEXICO-WEST TEXAS

CITY           SKY/WX    TMP DP  RH WIND       PRES   REMARKS
ALBUQUERQUE    PTCLDY    59  55  87 NE5       30.18R
EL PASO        PTCLDY    67  60  78 S6        30.09R
$$


........................KEY........................
SKY/WX - SKY CONDITION/WEATHER
TMP    - TEMPERATURE IN FAHRENHEIT
DP     - DEW POINT IN FAHRENHEIT
RH     - RELATIVE HUMIDITY IN PERCENT
WIND   - DIRECTION AND SPEED IN MILES PER HOUR (MPH)
VRB    - VARIABLE WIND DIRECTION
PRES   - MEAN SEA LEVEL PRESSURE IN INCHES OF MERCURY
         F - FALLING PRESSURE   R - RISING PRESSURE
         S - STEADY PRESSURE
VSB    - VISIBILITY IN MILES
HX     - HEAT INDEX IN FAHRENHEIT
WCI    - WIND CHILL INDEX IN FAHRENHEIT
TC     - TEMPERATURE IN CELSIUS WHICH IS ALSO KNOWN AS
         TEMPERATURE IN CENTIGRADE
AFB    - AIR FORCE BASE
         LUKE AFB IS LUKE AIR FORCE BASE
         DAVIS-MONTHAN IS DAVIS-MONTHAN AIR FORCE BASE
NAS    - NAVAL AIR STATION
         EL CENTRO NAS IS EL CENTRO NAVAL AIR STATION
N/A    - NOT AVAILABLE


USA.gov is the U.S. government's official web portal to all federal, state and local government web resources and services.